Stations météo

réclame
Mon MeteoGroup
Spa/La Sauveniere, Belgique (6490): Température de l'air & dewpoint: 19.02.2018 02:00:00 - 25.02.2018 02:00:00 (CET)Spa/La Sauveniere, Belgique (6490): Vitesse du vent & gusts: 19.02.2018 02:00:00 - 25.02.2018 02:00:00 (CET)Spa/La Sauveniere, Belgique (6490): Direction du vent: 19.02.2018 02:00:00 - 25.02.2018 02:00:00 (CET)Spa/La Sauveniere, Belgique (6490): reduced air pressure: 19.02.2018 02:00:00 - 25.02.2018 02:00:00 (CET)Spa/La Sauveniere, Belgique (6490): visibility: 19.02.2018 02:00:00 - 25.02.2018 02:00:00 (CET)
Date & Time tt [°C] td [°C] ff [km/h] ff [knt] fx [km/h] fx [knt] dd ppp [hPa] vv [km]
25.02.2018 02:00:00 -6,1 -17,3 18 10 36 19 E 1025,2 45
25.02.2018 01:00:00 -5,4 -16,5 22 12 - - E 1025,3 35
25.02.2018 00:00:00 -5,1 -16,5 18 10 32 18 E 1025,2 35
24.02.2018 23:00:00 -4,6 -15,6 22 12 36 19 E 1024,7 40
24.02.2018 22:00:00 -4,0 -14,1 18 10 - - E 1024,5 35
24.02.2018 21:00:00 -3,7 -14,0 18 10 40 21 E 1024,2 29
24.02.2018 20:00:00 -3,2 -12,3 22 12 43 23 E 1023,6 30
24.02.2018 19:00:00 -2,3 -11,9 22 12 - - E 1023,1 30
24.02.2018 18:00:00 -0,9 -10,0 18 10 43 23 E 1022,5 30
24.02.2018 17:00:00 0,4 -10,6 25 14 43 23 E 1022,0 30
24.02.2018 16:00:00 2,1 -10,7 25 14 - - E 1021,3 30
24.02.2018 15:00:00 2,4 -12,3 32 18 47 25 ENE 1021,0 30
24.02.2018 14:00:00 2,4 -14,0 29 16 50 27 E 1021,0 30
24.02.2018 13:00:00 2,0 -15,1 25 14 - - E 1021,1 30
24.02.2018 12:00:00 0,8 -16,2 25 14 68 37 ESE 1021,1 27
24.02.2018 11:00:00 -0,3 -17,7 36 19 61 33 ESE 1020,6 21
24.02.2018 10:00:00 -2,2 -18,7 36 19 - - SE 1021,0 30
24.02.2018 09:00:00 -4,5 -18,5 29 16 50 27 SE 1021,1 21
24.02.2018 08:00:00 -5,8 -19,4 29 16 47 25 SE 1021,0 21
24.02.2018 07:00:00 -6,4 -17,2 32 18 - - SE 1020,4 17
24.02.2018 06:00:00 -6,9 -16,1 22 12 40 21 ESE 1020,8 12
24.02.2018 05:00:00 -6,9 -15,9 22 12 36 19 ESE 1020,7 12
24.02.2018 04:00:00 -6,4 -16,2 22 12 - - ESE 1020,4 13
24.02.2018 03:00:00 -5,6 -15,6 14 8 47 25 ESE 1020,2 14
24.02.2018 02:00:00 -5,1 -16,1 25 14 47 25 ESE 1019,6 18
24.02.2018 01:00:00 -4,9 -17,1 22 12 - - SE 1020,0 24
24.02.2018 00:00:00 -4,4 -17,9 29 16 47 25 SE 1019,4 30
23.02.2018 23:00:00 -3,9 -19,8 18 10 32 18 ESE 1019,6 40
23.02.2018 22:00:00 -3,4 -13,4 4 2 - - ESE 1020,1 40
23.02.2018 21:00:00 -2,7 -17,7 11 6 29 16 E 1019,8 40
23.02.2018 20:00:00 -2,5 -14,3 7 4 22 12 E 1019,6 35
23.02.2018 19:00:00 -2,6 -14,4 14 8 - - ENE 1019,5 35
23.02.2018 18:00:00 -1,4 -15,7 14 8 32 18 ENE 1019,4 35
23.02.2018 17:00:00 -0,6 -12,5 18 10 36 19 E 1019,2 30
23.02.2018 16:00:00 -0,2 -13,5 18 10 - - ENE 1019,0 30
23.02.2018 15:00:00 -0,1 -14,0 22 12 36 19 ENE 1019,4 28
23.02.2018 14:00:00 -0,7 -16,0 22 12 36 19 ENE 1019,7 30
23.02.2018 13:00:00 -1,5 -13,1 25 14 - - ENE 1020,3 30
23.02.2018 12:00:00 -2,2 -16,5 22 12 32 18 ENE 1020,7 35
23.02.2018 11:00:00 -3,3 -15,0 18 10 32 18 E 1020,8 35
23.02.2018 10:00:00 -4,1 -15,7 18 10 - - E 1020,9 30
23.02.2018 09:00:00 -5,1 -13,3 14 8 29 16 E 1021,1 35
23.02.2018 08:00:00 -5,8 -14,6 11 6 25 14 E 1021,4 35
23.02.2018 07:00:00 -5,7 -13,6 14 8 - - E 1021,2 35
23.02.2018 06:00:00 -5,7 -13,6 11 6 29 16 ENE 1021,3 30
23.02.2018 05:00:00 -5,7 -11,7 11 6 22 12 ENE 1021,2 29
23.02.2018 04:00:00 -5,7 -12,3 7 4 - - ENE 1021,1 30
23.02.2018 03:00:00 -5,0 -13,4 14 8 22 12 E 1021,3 29
23.02.2018 02:00:00 -4,7 -11,8 14 8 32 18 E 1021,6 30
23.02.2018 01:00:00 -4,2 -12,8 14 8 - - E 1021,4 35
23.02.2018 00:00:00 -3,8 -13,2 14 8 29 16 E 1021,7 35
22.02.2018 23:00:00 -3,3 -10,8 14 8 25 14 E 1021,8 35
22.02.2018 22:00:00 -3,1 -11,7 11 6 - - E 1021,6 30
22.02.2018 21:00:00 -3,0 -13,1 11 6 32 18 ENE 1021,6 29
22.02.2018 20:00:00 -2,2 -9,1 18 10 29 16 ENE 1021,3 28
22.02.2018 19:00:00 -1,9 -9,9 11 6 - - ENE 1021,0 30
22.02.2018 18:00:00 -0,6 -10,6 14 8 36 19 ENE 1020,6 35
22.02.2018 17:00:00 0,3 -12,0 18 10 40 21 ENE 1020,4 29
22.02.2018 16:00:00 0,4 -10,0 22 12 - - ENE 1020,4 30
22.02.2018 15:00:00 0,2 -10,6 25 14 47 25 ENE 1021,1 40
22.02.2018 14:00:00 -0,1 -8,9 25 14 43 23 ENE 1021,9 21
22.02.2018 13:00:00 0,5 -10,6 22 12 - - ENE 1021,8 30
22.02.2018 12:00:00 -0,1 -9,6 22 12 43 23 E 1022,1 28
22.02.2018 11:00:00 -1,0 -10,8 22 12 40 21 E 1022,4 25
22.02.2018 10:00:00 -2,6 -9,7 22 12 - - E 1022,8 20
22.02.2018 09:00:00 -3,3 -11,3 22 12 36 19 E 1022,6 22
22.02.2018 08:00:00 -3,7 -11,3 18 10 36 19 E 1022,4 17
22.02.2018 07:00:00 -4,0 -9,9 14 8 - - ENE 1022,3 15
22.02.2018 06:00:00 -4,7 -4,7 4 2 7 4 N 1022,2 12
22.02.2018 05:00:00 -4,8 -13,4 4 2 14 8 ENE 1022,3 11
22.02.2018 04:00:00 -4,7 -9,4 7 4 - - E 1022,7 11
22.02.2018 03:00:00 -4,4 -12,8 7 4 14 8 ESE 1022,9 -
22.02.2018 02:00:00 -4,1 -8,6 4 2 11 6 ESE 1023,0 -
22.02.2018 01:00:00 -4,6 -10,4 0 0 - - N 1023,6 -
22.02.2018 00:00:00 -3,6 -10,4 7 4 11 6 ESE 1023,4 -
21.02.2018 23:00:00 -3,7 -8,4 4 2 7 4 E 1023,8 -
21.02.2018 22:00:00 -3,2 -8,3 4 2 - - E 1023,7 -
21.02.2018 21:00:00 -3,0 -9,7 11 6 18 10 NE 1023,8 -
21.02.2018 20:00:00 -2,6 -9,3 7 4 14 8 NE 1023,7 -
21.02.2018 19:00:00 -1,4 -9,7 7 4 - - NNE 1023,6 -
21.02.2018 18:00:00 -0,6 -6,9 11 6 25 14 NNE 1023,2 -
21.02.2018 17:00:00 0,5 -9,1 14 8 29 16 NNE 1023,0 -
21.02.2018 16:00:00 0,7 -5,3 14 8 - - N 1023,0 -
21.02.2018 15:00:00 1,4 -4,4 14 8 25 14 N 1023,4 5
21.02.2018 14:00:00 1,1 -5,0 14 8 29 16 N 1024,0 -
21.02.2018 13:00:00 0,7 -5,7 14 8 - - N 1024,2 -
21.02.2018 12:00:00 0,3 -6,8 11 6 22 12 ENE 1024,2 -
21.02.2018 11:00:00 -1,1 -8,7 11 6 25 14 ENE 1024,5 -
21.02.2018 10:00:00 -2,2 -6,9 11 6 - - ENE 1024,8 -
21.02.2018 09:00:00 -4,1 -8,7 7 4 7 4 ESE 1025,1 5
21.02.2018 08:00:00 -5,6 -14,1 4 2 14 8 SSW 1024,8 4,3
21.02.2018 07:00:00 -4,5 -10,3 11 6 - - ENE 1024,1 -
21.02.2018 06:00:00 -5,7 -13,3 4 2 7 4 E 1024,8 2,2
21.02.2018 05:00:00 -5,7 -6,8 4 2 7 4 N 1024,2 2,4
21.02.2018 04:00:00 -5,2 -12,6 4 2 - - NNW 1023,4 4,1
21.02.2018 03:00:00 -4,6 -6,6 4 2 7 4 E 1023,4 3,7
21.02.2018 02:00:00 -4,2 -12,6 4 2 7 4 NE 1023,5 3,2
21.02.2018 01:00:00 -3,5 -6,8 7 4 - - ENE 1022,8 4,3
21.02.2018 00:00:00 -3,1 -12,1 4 2 4 2 E 1022,1 4,7
20.02.2018 23:00:00 -2,4 -4,2 4 2 7 4 ENE 1021,6 5
20.02.2018 22:00:00 -1,6 -10,9 4 2 - - E 1021,1 -
20.02.2018 21:00:00 -1,3 -7,0 7 4 11 6 NE 1020,7 5
20.02.2018 20:00:00 -0,5 -7,0 4 2 14 8 NE 1020,1 5
20.02.2018 19:00:00 -0,2 -7,3 7 4 - - NNE 1019,6 5
20.02.2018 18:00:00 0,9 -6,5 7 4 18 10 NNE 1018,8 -
20.02.2018 17:00:00 1,8 -3,4 11 6 18 10 NNE 1018,0 -
20.02.2018 16:00:00 2,2 -4,0 11 6 - - NNE 1017,6 -
20.02.2018 15:00:00 2,4 -4,9 11 6 18 10 N 1017,8 -
20.02.2018 14:00:00 2,5 -5,6 7 4 18 10 N 1017,8 12
20.02.2018 13:00:00 2,5 -5,9 7 4 - - NNW 1017,8 11
20.02.2018 12:00:00 1,5 -6,1 7 4 14 8 NNW 1018,5 11
20.02.2018 11:00:00 1,6 -8,6 4 2 14 8 SW 1018,2 13
20.02.2018 10:00:00 0,3 -9,0 7 4 - - E 1017,9 13
20.02.2018 09:00:00 0,2 -7,1 11 6 18 10 ESE 1017,8 13
20.02.2018 08:00:00 -1,7 -7,1 7 4 11 6 ESE 1018,0 -
20.02.2018 07:00:00 -1,5 -10,5 4 2 - - ESE 1018,1 -
20.02.2018 06:00:00 -1,6 -3,0 4 2 7 4 E 1018,1 -
20.02.2018 05:00:00 -1,9 -12,5 4 2 4 2 SE 1018,0 -
20.02.2018 04:00:00 -1,6 -4,4 4 2 - - SW 1017,9 -
20.02.2018 03:00:00 -1,6 -12,0 0 0 11 6 N 1017,7 -
20.02.2018 02:00:00 -0,7 -8,2 4 2 11 6 SE 1017,3 -
20.02.2018 01:00:00 -0,8 -2,7 7 4 - - SE 1017,9 -
20.02.2018 00:00:00 -0,9 -9,7 11 6 14 8 SSE 1017,9 -
19.02.2018 23:00:00 -0,8 -3,9 11 6 14 8 SSE 1017,8 -
19.02.2018 22:00:00 -0,6 -10,6 11 6 - - SSE 1018,1 -
19.02.2018 21:00:00 -0,4 -3,2 7 4 14 8 S 1018,3 9
19.02.2018 20:00:00 -0,3 -10,9 11 6 14 8 SSE 1018,3 9
19.02.2018 19:00:00 -0,2 -6,1 7 4 - - SSE 1018,3 10
19.02.2018 18:00:00 0,1 -0,6 7 4 11 6 SSE 1018,3 12
19.02.2018 17:00:00 0,7 -7,4 7 4 11 6 S 1018,4 12
19.02.2018 16:00:00 0,9 -7,0 4 2 - - SSW 1018,8 14
19.02.2018 15:00:00 0,6 -7,0 7 4 14 8 S 1019,2 13
19.02.2018 14:00:00 - - - - - - - - -
19.02.2018 13:00:00 -0,5 -8,1 14 8 - - SSE 1020,1 -
19.02.2018 12:00:00 -1,3 -4,9 18 10 25 14 SSE 1020,6 -
19.02.2018 11:00:00 -2,0 -8,7 22 12 32 18 SSE 1021,0 -
19.02.2018 10:00:00 -2,6 -5,2 22 12 - - SSE 1021,4 -
19.02.2018 09:00:00 -3,1 -7,5 22 12 32 18 SSE 1021,8 -
19.02.2018 08:00:00 -3,4 -8,1 25 14 36 19 SSE 1022,0 -
19.02.2018 07:00:00 -3,6 -6,5 25 14 - - SSE 1022,1 5
19.02.2018 06:00:00 -3,6 -7,5 29 16 40 21 SSE 1022,0 4,4
19.02.2018 05:00:00 -3,6 -8,0 29 16 40 21 SSE 1022,6 4,4
19.02.2018 04:00:00 -3,5 -6,8 29 16 - - SSE 1022,7 5
19.02.2018 03:00:00 -3,0 -8,6 25 14 36 19 SSE 1023,3 -
19.02.2018 02:00:00 -2,3 -7,7 25 14 32 18 SSE 1023,6 -

tt = Température de l'air
td = dewpoint
ff = Vitesse du vent
fx = gusts
dd = Direction du vent
ppp = reduced air pressure
vv = visibility

stations d'obs. à proximité